This demonstration page uses our WeatherBlox Daily Observations layout. Learn more.

Left ArrowRight Arrow

Hourly Observations for July 26, 2017

Temp ( °F °C ) Dew Point ( °F °C ) Humidity (%) Winds ( mph kmh ) Pressure ( in mb ) Visibility ( mi km ) Precip ( " mm )
12:15 am 00:15 Partly Cloudy with Thunderstorms 82 27.6 68 20 63 63 ESE 8 13 29.77 1008 10 16 0.00 0.00
12:35 am 00:35 Mostly Cloudy with Thunderstorms 82 27.5 68 20.1 64 64 S 7 11 29.77 1008 10 16 0.00 0.00
12:55 am 00:55 Mostly Cloudy with Thunderstorms 82 28 68 19.8 61 61 SW 24 39 29.83 1010 10 16 0.00 0.00
1:15 am 01:15 Cloudy with Thunderstorms 75 23.9 69 20.8 83 83 SSW 17 28 29.85 1011 7 11 0.05 1.27
1:35 am 01:35 Cloudy with Strong Thunderstorms 74 23.5 69 20.8 85 85 S 14 22 29.83 1010 7 11 0.12 3.05
1:55 am 01:55 Cloudy with Thunderstorms 74 23.5 68 20.1 81 81 SSE 13 20 29.83 1010 10 16 0.15 3.81
2:15 am 02:15 Cloudy with Light Rain 74 23.5 71 21.5 89 89 SSE 12 19 29.83 1010 10 16 0.01 0.25
2:35 am 02:35 Cloudy with Light Rain 75 24 69 20.7 82 82 SE 13 20 29.80 1009 10 16 0.02 0.51
2:55 am 02:55 Mostly Cloudy with Rain 75 23.7 69 20.5 82 82 SE 10 17 29.83 1010 10 16 0.02 0.51
3:15 am 03:15 Mostly Cloudy with Drizzle 74 23.3 69 20.5 84 84 ESE 10 17 29.83 1010 10 16 0.01 0.25
3:35 am 03:35 Mostly Cloudy with Thunderstorms 73 22.7 70 21 90 90 NE 13 20 29.85 1011 10 16 0.01 0.25
3:55 am 03:55 Partly Cloudy 73 22.7 69 20.8 89 89 ENE 13 20 29.85 1011 10 16 0.01 0.25
4:15 am 04:15 Clear 73 22.7 69 20.5 87 87 E 13 20 29.85 1011 10 16 0.00 0.00
4:35 am 04:35 Partly Cloudy 72 22 68 20.2 90 90 ENE 14 22 29.85 1011 10 16 0.00 0.00
4:55 am 04:55 Mostly Cloudy 70 21.1 68 20 93 93 E 17 28 29.85 1011 10 16 0.00 0.00
5:15 am 05:15 Cloudy 70 21 68 19.8 93 93 E 16 26 29.85 1011 10 16 0.00 0.00
5:35 am 05:35 Cloudy 70 21 68 19.8 93 93 E 12 19 29.85 1011 10 16 0.00 0.00
5:55 am 05:55 Cloudy 70 21 67 19.6 92 92 E 10 17 29.85 1011 10 16 0.00 0.00
6:15 am 06:15 Cloudy 69 20.8 67 19.6 93 93 E 12 19 29.85 1011 10 16 0.00 0.00
6:35 am 06:35 Cloudy 70 20.9 67 19.7 93 93 ENE 13 20 29.88 1012 10 16 0.00 0.00
6:55 am 06:55 Cloudy 70 21 68 19.8 93 93 ENE 12 19 29.88 1012 10 16 0.00 0.00
7:15 am 07:15 Cloudy 70 21.1 68 19.8 92 92 E 9 15 29.88 1012 10 16 0.00 0.00
7:35 am 07:35 Cloudy 70 21 67 19.6 92 92 E 7 11 29.88 1012 10 16 0.00 0.00
7:55 am 07:55 Partly Cloudy 70 21.2 67 19.6 91 91 ENE 8 13 29.88 1012 10 16 0.00 0.00
8:15 am 08:15 Sunny 71 21.5 67 19.6 89 89 E 8 13 29.88 1012 10 16 0.00 0.00
8:35 am 08:35 Mostly Cloudy 71 21.6 67 19.7 89 89 ENE 7 11 29.88 1012 10 16 0.00 0.00
8:55 am 08:55 Cloudy 71 21.8 68 19.9 89 89 E 8 13 29.88 1012 10 16 0.00 0.00
9:15 am 09:15 Partly Cloudy 72 22.2 68 20 87 87 E 8 13 29.88 1012 10 16 0.00 0.00
9:35 am 09:35 Sunny 73 22.5 69 20.3 87 87 E 7 11 29.91 1013 10 16 0.00 0.00
9:55 am 09:55 Mostly Cloudy 73 22.7 69 20.5 87 87 ENE 9 15 29.91 1013 10 16 0.00 0.00
10:15 am 10:15 Cloudy 74 23.2 69 20.7 86 86 NE 7 11 29.91 1013 10 16 0.00 0.00
10:35 am 10:35 Cloudy 75 23.7 70 21 85 85 NE 9 15 29.88 1012 10 16 0.00 0.00
10:55 am 10:55 Cloudy 75 24.1 70 21 83 83 NE 8 13 29.88 1012 10 16 0.00 0.00
11:15 am 11:15 Cloudy 76 24.2 70 21.3 84 84 NE 8 13 29.88 1012 10 16 0.00 0.00
11:35 am 11:35 Cloudy 76 24.3 70 21.2 83 83 NE 9 15 29.91 1013 10 16 0.00 0.00
11:55 am 11:55 Cloudy 76 24.2 70 21.2 83 83 NE 8 13 29.91 1013 10 16 0.00 0.00
12:15 pm 12:15 Cloudy 75 24.1 70 21.1 83 83 NE 8 13 29.91 1013 10 16 0.00 0.00
12:35 pm 12:35 Cloudy with Rain 74 23.2 70 21 87 87 NNE 10 17 29.94 1014 7 11 0.00 0.00
12:55 pm 12:55 Cloudy with Drizzle 73 22.6 70 21.2 92 92 NE 9 15 29.94 1014 4 6 0.00 0.00
1:15 pm 13:15 Cloudy with Light Rain 73 22.5 70 21.1 92 92 NNE 16 26 29.94 1014 3 4 0.00 0.00
1:35 pm 13:35 Cloudy with Mist and Fog 72 22 69 20.5 91 91 NE 13 20 29.94 1014 5 8 0.01 0.25
1:55 pm 13:55 Cloudy 72 22.3 69 20.6 90 90 NE 16 26 29.94 1014 10 16 0.01 0.25
2:15 pm 14:15 Cloudy 73 23 70 21 89 89 NNE 14 22 29.94 1014 10 16 0.00 0.00
2:35 pm 14:35 Cloudy 74 23.5 70 20.9 85 85 NE 15 24 29.94 1014 10 16 0.00 0.00
2:55 pm 14:55 Cloudy 75 23.7 69 20.5 82 82 NE 15 24 29.91 1013 10 16 0.00 0.00
3:15 pm 15:15 Cloudy 76 24.2 69 20.8 81 81 NE 16 26 29.91 1013 10 16 0.00 0.00
3:35 pm 15:35 Cloudy 76 24.3 69 20.3 78 78 NE 13 20 29.91 1013 10 16 0.00 0.00
3:55 pm 15:55 Cloudy 76 24.5 69 20.3 78 78 NE 10 17 29.91 1013 10 16 0.00 0.00
4:15 pm 16:15 Cloudy 77 25 69 20.7 77 77 NE 8 13 29.91 1013 10 16 0.00 0.00
4:35 pm 16:35 Cloudy 79 26 69 20.8 73 73 ENE 12 19 29.91 1013 10 16 0.00 0.00
4:55 pm 16:55 Mostly Cloudy 80 26.6 69 20.8 71 71 NE 13 20 29.91 1013 10 16 0.00 0.00
5:15 pm 17:15 Mostly Cloudy 81 27 71 21.4 71 71 ENE 10 17 29.91 1013 10 16 0.00 0.00
5:35 pm 17:35 Partly Cloudy 80 26.7 68 20.2 68 68 NE 13 20 29.91 1013 10 16 0.00 0.00
5:55 pm 17:55 Cloudy 78 25.8 68 19.9 70 70 ENE 9 15 29.91 1013 10 16 0.00 0.00
6:15 pm 18:15 Cloudy 78 25.7 69 20.3 72 72 ENE 8 13 29.91 1013 10 16 0.00 0.00
6:35 pm 18:35 Cloudy 78 25.5 69 20.7 75 75 E 8 13 29.91 1013 10 16 0.00 0.00
6:55 pm 18:55 Cloudy 78 25.5 70 21 76 76 NE 5 7 29.91 1013 10 16 0.00 0.00
7:15 pm 19:15 Cloudy 78 25.6 69 20.8 75 75 ENE 6 9 29.91 1013 7 11 0.00 0.00
7:35 pm 19:35 Cloudy 78 25.4 69 20.5 74 74 NE 10 17 29.91 1013 10 16 0.00 0.00
7:55 pm 19:55 Mostly Cloudy 78 25.5 69 20.6 74 74 ENE 9 15 29.91 1013 10 16 0.00 0.00
8:15 pm 20:15 Cloudy 77 25 69 20.3 75 75 E 10 17 29.91 1013 10 16 0.00 0.00
8:35 pm 20:35 Cloudy 76 24.2 69 20.5 80 80 ENE 6 9 29.94 1014 10 16 0.00 0.00
8:55 pm 20:55 Cloudy 74 23.5 68 20.2 82 82 NE 5 7 29.97 1015 10 16 0.00 0.00
9:15 pm 21:15 Mostly Cloudy 74 23.1 68 20.2 84 84 NE 5 7 29.97 1015 10 16 0.00 0.00
9:35 pm 21:35 Mostly Cloudy 73 22.9 68 20.2 85 85 NE 3 6 29.97 1015 10 16 0.00 0.00
9:55 pm 21:55 Cloudy 73 22.7 69 20.6 88 88 NNE 3 6 29.97 1015 10 16 0.00 0.00
10:15 pm 22:15 Cloudy 73 22.6 69 20.7 89 89 Calm 29.97 1015 10 16 0.00 0.00
10:35 pm 22:35 Cloudy 73 22.5 69 20.8 90 90 NNE 3 6 29.97 1015 10 16 0.00 0.00
10:55 pm 22:55 Cloudy 73 22.5 70 21 91 91 NNE 5 7 29.97 1015 10 16 0.00 0.00
11:15 pm 23:15 Cloudy 73 22.5 69 20.7 90 90 NNE 6 9 29.97 1015 10 16 0.00 0.00
11:35 pm 23:35 Partly Cloudy 72 22.1 69 20.4 90 90 NNE 5 7 29.97 1015 10 16 0.00 0.00
11:55 pm 23:55 Partly Cloudy 71 21.8 68 20.2 91 91 NE 3 6 30.00 1016 10 16 0.00 0.00

Powered by AerisWeather